Content
SEND FEEDBACK

Daily
Averages
Monthly
Summary
United States of America

UPI, GUAM


Home > North America > United States > Guam
Elevation: 16 meters     Latitude: 13 34N     Longitude: 144 55E

WEATHER
 
SELECT A DAY
Number of Records: 208,997;   Date Range: 1/1/95 - 7/26/14
 
SHARE

PRINT THIS DATA

[ ← Previous Day ]
WEATHER ALMANAC - 5 FEBRUARY, 2013
[ Next Day → ]
[ °F ]   °C
Weather ElementAverageHighLow
Temperature26.9 °C30 °C (12:54 pm)23.9 °C (3:54 am)
Dewpoint21.7 °C22.8 °C (4:54 am)20.6 °C (12:54 pm)
Humidity73.4 %88 % (4:54 am)57 % (12:54 pm)
Barometer1013.9 hPa1016.3 hPa (8:54 am)1011.9 hPa (2:54 pm)
Wind Speed23.8 km/h35.2 km/h (11:54 am)
Wind Gust48.1 km/h (2:54 pm)
Weather ElementAverage
Visibility16.1 km
Wind DirectionENE (69.6 °)

Weather ElementTotal
Precipitation---
Cooling Degree Days8.6 (Base 18.3)
Growing Degree Days16.9 (Base 10)
Averaged from 25 records on 5 February, 2013
WEATHER CONDITIONS BREAKOUT
WIND DIRECTION BREAKOUT
WEATHER BY HOUR - 5 FEBRUARY, 2013
[ °F ]   °C
Local TimeTemperatureDewpointHumidityBarometerVisibilityWind DirectionWind SpeedGust SpeedPrecipitationEventsConditions
1:54 AM25.6 °C22.2 °C81 %1015.2 hPa16.1 kmENE (60°)14.8 km/hScattered Clouds
2:54 AM24.4 °C22.2 °C87 %1014.9 hPa16.1 kmENE (70°)24.1 km/h0 mmScattered Clouds
3:54 AM23.9 °C21.7 °C87 %1014.6 hPa16.1 kmENE (60°)18.5 km/hOvercast
4:54 AM25 °C22.8 °C88 %1014.6 hPa16.1 kmEast (80°)16.7 km/h0 mmMostly Cloudy
5:54 AM25 °C22.2 °C84 %1014.9 hPa16.1 kmENE (70°)16.7 km/hScattered Clouds
6:54 AM25.6 °C22.8 °C84 %1015.6 hPa16.1 kmENE (70°)20.4 km/h29.6 km/hMostly Cloudy
7:54 AM26.1 °C22.2 °C79 %1015.9 hPa16.1 kmENE (70°)22.2 km/hScattered Clouds
8:54 AM27.2 °C21.7 °C72 %1016.3 hPa16.1 kmENE (70°)29.6 km/h38.9 km/hPartly Cloudy
9:54 AM27.8 °C22.2 °C71 %1015.6 hPa16.1 kmENE (60°)27.8 km/hPartly Cloudy
10:54 AM28.9 °C21.7 °C65 %1014.9 hPa16.1 kmEast (80°)31.5 km/h46.3 km/hPartly Cloudy
11:54 AM28.9 °C21.7 °C65 %1013.9 hPa16.1 kmENE (70°)35.2 km/h42.6 km/hPartly Cloudy
12:54 PM30 °C20.6 °C57 %1013.2 hPa16.1 kmENE (60°)31.5 km/h46.3 km/hScattered Clouds
1:54 PM30 °C21.1 °C59 %1012.5 hPa16.1 kmENE (70°)31.5 km/h42.6 km/hMostly Cloudy
2:54 PM29.4 °C20.6 °C59 %1011.9 hPa16.1 kmEast (80°)31.5 km/h48.1 km/hScattered Clouds
3:54 PM28.9 °C21.7 °C65 %1011.9 hPa16.1 kmEast (80°)27.8 km/hPartly Cloudy
4:54 PM28.3 °C21.1 °C65 %1011.9 hPa16.1 kmENE (70°)24.1 km/h37 km/hScattered Clouds
5:05 PM28 °C22 °C70 %1012.9 hPa16.1 kmENE (70°)22.2 km/hMostly Cloudy
5:25 PM27 °C21 °C70 %1012.9 hPa16.1 kmENE (70°)29.6 km/h38.9 km/hScattered Clouds
5:54 PM27.2 °C21.1 °C69 %1012.5 hPa16.1 kmENE (60°)27.8 km/h38.9 km/hPartly Cloudy
6:54 PM26.7 °C21.1 °C71 %1012.9 hPa16.1 kmENE (70°)20.4 km/hClear
7:54 PM26.1 °C21.7 °C77 %1013.2 hPa16.1 kmENE (70°)16.7 km/hPartly Cloudy
8:54 PM26.1 °C21.7 °C77 %1013.9 hPa16.1 kmENE (70°)22.2 km/hScattered Clouds
9:54 PM26.1 °C21.1 °C74 %1013.9 hPa16.1 kmENE (70°)16.7 km/h0 mmScattered Clouds
10:54 PM25.6 °C22.2 °C81 %1013.2 hPa16.1 kmENE (60°)18.5 km/h0 mmMostly Cloudy
11:54 PM26.1 °C21.7 °C77 %1012.9 hPa16.1 kmEast (80°)18.5 km/hScattered Clouds
Hourly data recorded from PGUM, located 0 kilometers away from Upi, Guam







STORIES FROM OUR PARTNERS